This is the latest recevied weather packets stored in our database for station/object SP2FH-13. If no packets are shown the sender has not sent any weather packets the latest 10 day(s).
| Time | Temp. | Humidity | Pressure | Rain* | Wind** | Luminosity | Snow |
|---|---|---|---|---|---|---|---|
| 1777634914 | 20° C | 37% | 1015.4 hPa | - | - | 716 W/m² | - |
| 1777634613 | 19.44° C | 39% | 1015.4 hPa | - | - | 721 W/m² | - |
| 1777634313 | 18.89° C | 39% | 1015.5 hPa | - | - | 720 W/m² | - |
| 1777634012 | 18.33° C | 38% | 1015.6 hPa | - | - | 720 W/m² | - |
| 1777633711 | 18.33° C | 41% | 1015.6 hPa | - | - | 715 W/m² | - |
| 1777633410 | 19.44° C | 41% | 1015.7 hPa | - | - | 716 W/m² | - |
| 1777633109 | 18.89° C | 39% | 1015.7 hPa | - | - | 718 W/m² | - |
| 1777632808 | 18.89° C | 41% | 1015.7 hPa | - | - | 716 W/m² | - |
| 1777632507 | 18.33° C | 42% | 1015.7 hPa | - | - | 714 W/m² | - |
| 1777632206 | 18.89° C | 41% | 1015.7 hPa | - | - | 719 W/m² | - |
| 1777631905 | 18.33° C | 43% | 1015.7 hPa | - | - | 716 W/m² | - |
| 1777631604 | 18.33° C | 42% | 1015.7 hPa | - | - | 718 W/m² | - |
| 1777631304 | 18.33° C | 43% | 1015.8 hPa | - | - | 723 W/m² | - |
| 1777631002 | 18.33° C | 42% | 1015.8 hPa | - | - | 719 W/m² | - |
| 1777630701 | 17.78° C | 41% | 1015.8 hPa | - | - | 720 W/m² | - |
| 1777630400 | 17.78° C | 44% | 1015.8 hPa | - | - | 719 W/m² | - |
| 1777630099 | 17.78° C | 43% | 1015.9 hPa | - | - | 719 W/m² | - |
| 1777629798 | 16.67° C | 44% | 1015.9 hPa | - | - | 715 W/m² | - |
| 1777629497 | 17.22° C | 44% | 1015.9 hPa | - | - | 713 W/m² | - |
| 1777629196 | 17.78° C | 42% | 1015.9 hPa | - | - | 715 W/m² | - |
| 1777628896 | 16.67° C | 44% | 1015.8 hPa | - | - | 707 W/m² | - |
| 1777628595 | 16.67° C | 44% | 1015.9 hPa | - | - | 706 W/m² | - |
| 1777628293 | 16.11° C | 45% | 1015.9 hPa | - | - | 705 W/m² | - |
| 1777627992 | 17.22° C | 44% | 1015.9 hPa | - | - | 704 W/m² | - |
| 1777627691 | 17.22° C | 43% | 1016 hPa | - | - | 698 W/m² | - |
* Rain since midnight (hover to see other rain measurements)
** Current wind speed in m/s (hover to see current wind gust speed)